Regional Weather Roundup
Issued by NWS Sterling, VA

Home | Current Version | Previous Version | Graphics & Text | Print | Product List | Glossary On
Versions: 1 2 3 4 5 6 7 8 9 10 11 12 13 14 15 16 17 18 19 20 21 22 23 24 25 26 27 28 29 30 31 32 33 34 35 36 37 38 39 40 41 42 43 44 45 46 47 48 49 50
008
ASUS41 KLWX 200611
RWRLWX

REGIONAL WEATHER ROUNDUP
NATIONAL WEATHER SERVICE BALTIMORE MD/WASHINGTON DC
200 AM EDT FRI APR 20 2018

Note: "FAIR" indicates few or no clouds below 12,000 feet
with no significant weather and/or obstructions to visibility.
 TC=TEMPERATURE CELSIUS

 * =Non NWS site. Station does not report precipitation (e.g. rain,
    snow, etc.), thunder, or fog.

DCZ001-MDZ009-015-VAZ040>042-051-053>054-200700-
WASHINGTON METRO

CITY           SKY/WX    TMP DP  RH WIND       PRES   REMARKS
WASHINGTON NAT FAIR      43  22  43 NW10      30.19R
DULLES         FAIR      36  25  64 NW3       30.19R
ANDREWS AFB    FAIR      41  22  46 NW8       30.16R
FT BELVOIR     FAIR      34  26  73 CALM      30.19R
QUANTICO       FAIR      41  32  70 NW5       30.20R
COLLEGE PARK*  FAIR      40  19  43 NW6       30.18R
LEESBURG*      FAIR      39  28  65 N6        30.20R WCI  35
MANASSAS*      FAIR      35  27  72 NW3       30.19S
GAITHERSBURG*  FAIR      38  20  48 NW12G18   30.18R WCI  30

$$

MDZ006>007-011-014-200700-
BALTIMORE METRO

CITY           SKY/WX    TMP DP  RH WIND       PRES   REMARKS
BWI AIRPORT    FAIR      39  21  48 NW10      30.17R WCI  32
MD SCIENCE CTR   N/A     43  19  38 MISG      30.17R
MARTIN STATE   FAIR      37  27  65 W10       30.17R WCI  30
ANNAPOLIS      FAIR      44  25  47 NW8       30.16R
FORT MEADE*    FAIR      36  23  60 NW8       30.20R WCI  29

$$

MDZ012-015-019>023-200700-
MARYLAND EASTERN SHORE

CITY           SKY/WX    TMP DP  RH WIND       PRES   REMARKS
OCEAN CITY     FAIR      38  27  64 NW3       30.14S
SALISBURY      FAIR      39  27  62 W5        30.14S
BAY BRIDGE AP* FAIR      41  25  52 NW12      30.16R WCI  34
CAMBRIDGE*       N/A    N/A N/A N/A MISG        N/A
EASTON*        FAIR      42  23  46 NW10G16   30.19R

$$

MDZ017>025-200700-
SOUTHERN MARYLAND

CITY           SKY/WX    TMP DP  RH WIND       PRES   REMARKS
PATUXENT RIVER FAIR      42  27  55 W8        30.17R
ST INIGOES     FAIR      42  28  57 W7        30.17R
LEONARDTOWN*   FAIR      37  28  70 W6        30.19S WCI  33

$$

MDZ003>005-200700-
NORTH CENTRAL MARYLAND

CITY           SKY/WX    TMP DP  RH WIND       PRES   REMARKS
FREDERICK*     FAIR      37  19  48 N7        30.23R WCI  32
HAGERSTOWN APT MOCLDY    37  23  56 NW9       30.18R WCI  30
WESTMINSTER*   FAIR      36  23  60 NW7G17    30.16R WCI  30

$$

MDZ501>502-200700-
WESTERN MARYLAND

CITY           SKY/WX    TMP DP  RH WIND       PRES   REMARKS
OAKLAND*       FAIR      27  19  74 NW13G22   30.13S WCI  16
CUMBERLAND*    FAIR      37  23  56 NW13G29   30.26R WCI  29

$$

VAZ025>031-200700-
SHENANDOAH VALLEY

CITY           SKY/WX    TMP DP  RH WIND       PRES   REMARKS
WINCHESTER*    FAIR      37  21  52 NW13G18   30.20S WCI  29
FRONT ROYAL*   FAIR      41  25  52 NW8G16    30.18S
LURAY*         FAIR      43  27  52 NW8       30.18S
NEW MARKET*    FAIR      43  23  46 N5        30.18S
STAUNTON*      MOCLDY    31  26  80 CALM      30.20S
WAYNESBORO*    FAIR      40  26  57 W5        30.17S

$$

WVZ021-048>050-054>055-200700-
EASTERN WEST VIRGINIA PANHANDLE

CITY           SKY/WX    TMP DP  RH WIND       PRES   REMARKS
MARTINSBURG    FAIR      37  21  52 N8        30.19R WCI  31
PETERSBURG*    FAIR      41  20  44 NW9       30.22R WCI  35

$$

VAZ036>039-050-200700-
CENTRAL FOOTHILLS

CITY           SKY/WX    TMP DP  RH WIND       PRES   REMARKS
CHARLOTTESVILL FAIR      39  25  57 S3        30.18S
CULPEPER*      FAIR      33  26  76 CALM      30.20S
ORANGE*        FAIR      34  28  80 CALM      30.19R
GORDONSVILLE*  FAIR      34  29  82 CALM      30.19R
WARRENTON*     FAIR      35  25  65 CALM      30.18S

$$

VAZ055>057-200700-
NORTH AND CENTRAL PIEDMONT

CITY           SKY/WX    TMP DP  RH WIND       PRES   REMARKS
FREDERICKSBRG* FAIR      38  31  76 CALM      30.19S
STAFFORD*      FAIR      32  29  89 CALM      30.23S

$$

NCZ024-NYZ072-PAZ021-071-VAZ022-071-200700-
OTHER REGIONAL OBSERVATIONS

CITY           SKY/WX    TMP DP  RH WIND       PRES   REMARKS
NEW YORK CITY  FAIR      37  23  56 VRB7      30.04S WCI  32
PHILADELPHIA   FAIR      40  22  48 NW17      30.11R WCI  31
PITTSBURGH     FAIR      31  22  69 NW7       30.27R WCI  24
ROANOKE        FAIR      42  27  55 W5        30.25R
RICHMOND       FAIR      42  27  55 NW6       30.19S
RALEIGH        FAIR      44  30  57 N6        30.25R

$$

ANZ530>537-200700-
MARINE OBSERVATIONS

STATION/POSITION TIME  TEMP    WIND        PRES
                       AIR SEA DIR/SP/G
                 (UTC) (F)     (DEG/KT/KT) (MB)
THOMAS PT LIGHT  0600   42 49  310/ 11/ 13 1022.7R
BALT KEY BRIDGE  0548          310/ 17/ 19 1021.0R
COVE POINT       0548          330/ 14/ 19 1021.9S
LEWISETTA        0548      53  340/ 13/ 17 1021.8R
SOLOMONS ISLAND  0548      52  290/  7/ 11 1021.4R
PINEY POINT      0548          340/ 21/ 24   N/A

$$





USA.gov is the U.S. government's official web portal to all federal, state and local government web resources and services.